Regional Weather Roundup
Issued by NWS

Home | Current Version | Previous Version | Text Only | Print | Product List | Glossary Off
Versions: 1 2 3 4 5 6 7 8 9 10 11 12 13 14 15 16 17 18 19 20 21 22 23 24 25 26 27 28 29 30 31 32 33 34 35 36 37 38 39 40 41 42 43 44 45 46 47 48 49 50

828
ASUS43 KDTX 250410
RWRMI
MICHIGAN HOURLY REGIONAL WEATHER ROUNDUP
NATIONAL WEATHER SERVICE DETROIT/PONTIAC MI
1200 AM EDT FRI MAY 25 2018

NOTE: "FAIR" INDICATES FEW OR NO CLOUDS BELOW 12,000 FEET WITH NO
SIGNIFICANT WEATHER AND/OR OBSTRUCTION TO VISIBILITY.

MIZ047>049-052>055-059>063-066>070-074>076-081>083-250500-
SOUTHEAST LOWER MICHIGAN

CITY           SKY/WX    TMP DP  RH WIND       PRES   REMARKS
ADRIAN         FAIR      61  55  81 CALM      30.09F
ALMA           FAIR      63  59  88 S7        30.05F
ANN ARBOR      FAIR      56  53  90 CALM      30.08F
BAD AXE        FAIR      63  51  65 SW5       30.04S
CARO           FAIR      58  53  84 CALM      30.04S
DETROIT CITY   FAIR      66  50  56 SW5       30.08S
DETROIT        FAIR      65  51  60 S3        30.09S
FLINT          FAIR      66  49  54 S7        30.06F
GROSSE ILE     FAIR      63  58  83 S3        30.07S
HILLSDALE      FAIR      59  48  67 CALM      30.09F
HOWELL         FAIR      66  48  53 SW3       30.07F

CITY           SKY/WX    TMP DP  RH WIND       PRES   REMARKS
JACKSON        FAIR      61  54  77 CALM      30.08F
LAMBERTVILLE   FAIR      63  55  75 SE3       30.08F
LANSING        FAIR      66  51  58 SW6       30.07S
LAPEER         FAIR      57  52  84 CALM      30.06S
MASON          FAIR      65  51  59 CALM      30.07F
MONROE         FAIR      63  53  68 S8        30.08S
MT. CLEMENS    FAIR      60  53  79 SW3         N/A
PONTIAC        FAIR      64  52  64 CALM      30.07S
PORT HOPE        N/A     66  52  60 SW5       30.00F
PORT HURON     FAIR      57  50  77 CALM      30.07S
TRI CITIES     FAIR      66  55  67 W7        30.04F
MIDLAND        FAIR      61  56  82 CALM      30.03S
TROY           FAIR      69  46  44 SW5       30.10S
SAGINAW HB     FAIR      64  52  63 S5        30.04S
$$
MIZ043>046-050>051-056>058-064>065-071>073-077>080-250500-
SOUTHWEST LOWER MICHIGAN

CITY           SKY/WX    TMP DP  RH WIND       PRES   REMARKS
BATTLE CREEK   FAIR      63  51  65 S6        30.07F
BENTON HARBOR  FAIR      61  57  87 SE3       30.05S
BIG RAPIDS     FAIR      60  54  81 CALM      30.04F
COLDWATER      FAIR      58  55  89 SE3       30.09S
FREMONT        FAIR      61  56  83 CALM      30.03F
HOLLAND        FAIR      64  56  75 CALM      30.05S
GRAND RAPIDS   FAIR      64  58  80 S6        30.05S
IONIA          FAIR      67  53  61 S3        30.05S
KALAMAZOO      FAIR      65  51  60 S6        30.07F
LUDINGTON      FAIR      69  51  53 S3        30.01S
MARSHALL       FAIR      60  57  90 CALM      30.07F
MOUNT PLEASANT FAIR      64  58  79 CALM      30.03F
MUSKEGON       FAIR      63  54  72 CALM      30.03F
SOUTH HAVEN    FAIR      62  57  83 CALM      30.05S
$$
MIZ016>042-250500-
NORTHERN LOWER MICHIGAN

CITY           SKY/WX    TMP DP  RH WIND       PRES   REMARKS
ALPENA         FAIR      63  59  87 CALM      29.99F
BEAVER ISLAND  FAIR      65  47  52 SW14G22   29.96F
BELLAIRE       FAIR      59  55  87 CALM      29.99F
CADILLAC       FAIR      60  51  70 S3        30.04F
CHARLEVOIX     FAIR      70  49  47 S7        30.00F
FRANKFORT      FAIR      69  49  50 CALM      30.00F
GAYLORD        FAIR      64  51  62 SW6       30.02S
GRAYLING       FAIR      58  53  80 CALM      30.01F
HARBOR SPRINGS FAIR      61  52  73 CALM      29.98F
HOUGHTON LAKE  FAIR      68  53  58 SW5       30.04S
MANISTEE       FAIR      59  54  83 NE3       30.00F
OSCODA         FAIR      69  52  54 SW10      29.99F
PELLSTON       FAIR      71  50  47 SW6       29.98S
ROGERS CITY    FAIR      64  56  75 SW3       30.00S
TRAVERSE CITY  FAIR      69  51  52 CALM      29.98F
$$
MIZ007>008-015-250500-
EASTERN UPPER MICHIGAN

CITY           SKY/WX    TMP DP  RH WIND       PRES   REMARKS
KINROSS        RAIN      57  55  93 NW12      29.99R
MACKINAC ISLAN MOCLDY    62  48  60 SW12      29.97F
NEWBERRY       CLOUDY    64  48  56 SW7       29.94F
S. S. MARIE    LGT RAIN  63  54  72 SW6       29.97R
MUNISING         N/A     68  55  63 SW9       29.90F
$$
MIZ004>006-011>014-085-250500-
CENTRAL UPPER MICHIGAN

CITY           SKY/WX    TMP DP  RH WIND       PRES   REMARKS
MANISTIQUE     FAIR      55  51  87 S10       29.95S
ESCANABA       FAIR      65  53  65 SW10G17   29.94S
MENOMINEE      FAIR      70  56  61 SW10      29.95F
SAWYER-GWINN   LGT RAIN  68  60  74 W10G16    29.94F
$$
MIZ001>003-009>011-084-250500-
WESTERN UPPER MICHIGAN

CITY           SKY/WX    TMP DP  RH WIND       PRES   REMARKS
IRON MOUNTAIN  CLOUDY    69  64  84 W12       29.99R
HOUGHTON       MOCLDY    67  62  84 S12G20    29.88F
COPPER HARBOR    N/A     64  61  90 SW10      29.85F
IRONWOOD       FAIR      68  63  84 SE13G21   29.89S
$$

ABBREVIATIONS USED IN REMARKS
   TC - TEMPERATURE IN CELSIUS
  WCI - WIND CHILL INDEX
   HX - HEAT INDEX
  VSB - VISIBILITY





USA.gov is the U.S. government's official web portal to all federal, state and local government web resources and services.